Current weather by "City, St" or "zip code"  
 

Current Conditions: Winston Salem, Smith Reynolds Airport, NC

Partly Cloudy


74.0 F

Last Updated on Sep 18 2020, 12:54 pm EDT
Humidity: 69%
Wind Speed: NE 10.4 mph
Barometer 29.97 in
Dewpoint: 63.0 F
Visibility: 10.00 mi
Precip: --
Heat Index: NA
Wind Chill: NA
Current conditions at:

Winston Salem, Smith Reynolds Airport, NC (KINT)

Lat: 36.13333 Lon: 80.22472

Local Radar Image active severe weather and emergency alerts image image weather storm and storm spotter reports image weather observation monitoring service image
Local
Radar
Active
Alerts
Storm Reports Obs
Monitoring

Sign-up For Email & Text Message Weather Alert Notification Services



Advertise Here

Observation History for Winston Salem, Smith Reynolds Airport, NC


Time Wind
(mph)
Vis
(mi)
Weather Precip (in) Temperature (F) Relative
Humidity
Wind
Chill
(F)
Heat
Index
(F)
Pressure
Air Dwpt altimeter
(in)
sea level
(mb)
Rmks
12:54 pm EDT NE 10.4 10.00 Partly Cloudy -- 74.0 63.0 69% NA NA 29.97 1014.0
11:54 am EDT N 11.5 G 20.7 10.00 Mostly Cloudy -- 72.0 63.0 73% NA NA 29.98 1014.4
10:54 am EDT NE 9.2 10.00 Overcast -- 70.0 64.0 82% NA NA 29.98 1014.4
9:54 am EDT NE 10.4 10.00 Overcast -- 67.0 63.0 87% NA NA 29.96 1013.6
8:54 am EDT N 9.2 10.00 Overcast -- 67.0 64.0 91% NA NA 29.93 1012.6
7:54 am EDT N 11.5 10.00 Overcast -- 66.0 64.0 93% NA NA 29.92 1012.2
6:54 am EDT N 9.2 10.00 Overcast -- 65.0 64.9 100% NA NA 29.89 1011.4
5:54 am EDT N 12.7 10.00 Overcast -- 65.0 64.9 100% NA NA 29.87 1010.7
4:54 am EDT N 12.7 10.00 Overcast -- 65.0 64.9 100% NA NA 29.85 1009.9
3:54 am EDT N 11.5 10.00 Overcast -- 65.0 64.9 100% NA NA 29.85 1009.9
2:54 am EDT N 12.7 8.00 Overcast -- 65.0 64.9 100% NA NA 29.84 1009.7
1:54 am EDT N 12.7 G 20.7 10.00 Overcast Trace 65.0 64.9 100% NA NA 29.84 1009.8
12:54 am EDT N 11.5 5.00 Light Rain Fog/Mist 00.01 65.0 64.9 100% NA NA 29.85 1010.1
11:54 pm EDT NE 9.2 G 18.4 8.00 Light Rain 00.01 65.0 64.9 100% NA NA 29.85 1010.2
10:54 pm EDT NE 13.8 G 19.6 6.00 Light Rain Fog/Mist 00.03 65.0 64.9 100% NA NA 29.86 1010.5
9:54 pm EDT NE 13.8 G 23.0 7.00 Light Rain 00.03 65.0 64.9 100% NA NA 29.86 1010.4
8:54 pm EDT NE 17.3 9.00 Light Rain -- 65.0 64.9 100% NA NA 29.85 1010.2
7:54 pm EDT NE 13.8 7.00 Light Rain 00.07 65.0 64.9 100% NA NA 29.85 1010.2
6:54 pm EDT NE 15.0 G 21.9 4.00 Light Rain Fog/Mist 00.07 65.0 64.9 100% NA NA 29.85 1010.2
5:54 pm EDT N 16.1 G 23.0 3.00 Rain Fog/Mist 00.04 65.0 64.9 100% NA NA 29.85 1010.2
4:54 pm EDT NE 16.1 5.00 Light Rain Fog/Mist -- 66.0 66.0 100% NA NA 29.86 1010.3
3:54 pm EDT NE 10.4 3.00 Rain Fog/Mist 00.12 66.0 66.0 100% NA NA 29.89 1011.3
2:54 pm EDT NE 11.5 3.00 Rain Fog/Mist 00.11 66.0 66.0 100% NA NA 29.91 1012.1
1:54 pm EDT NE 8.1 4.00 Rain Fog/Mist 00.15 65.0 64.9 100% NA NA 29.95 1013.3

Regional Weather Observation


Mount Airy/Surry County Airport, NC (KMWK)

Mostly Cloudy
73.0 F

Martinsville, VA (KMTV)

Fair
74.0 F

Hillsville, VA (KHLX)

Overcast
66.0 F

Greensboro, Piedmont Triad International Airport, NC (KGSO)

Overcast
73.0 F

Reidsville, Rockingham County NC Shiloh Airport, NC (KSIF)

Partly Cloudy
73.0 F

Lexington, Davidson County Airport, NC (KEXX)

Mostly Cloudy
72.0 F